Regional Weather Roundup
Issued by NWS

Home | Current Version | Previous Version | Text Only | Print | Product List | Glossary On
Versions: 1 2 3 4 5 6 7 8 9 10 11 12 13 14 15 16 17 18 19 20 21 22 23 24 25 26 27 28 29 30 31 32 33 34 35 36 37 38 39 40 41 42 43 44 45 46 47 48 49 50
000
ASUS44 KEWX 290902
RWRTX
SOUTH TEXAS REGIONAL WEATHER ROUNDUP
NATIONAL WEATHER SERVICE AUSTIN/SAN ANTONIO TX
300 AM CST MON DEC 29 2014

NOTE: "FAIR" INDICATED FEW OR NO CLOUDS BELOW 12,000 FEET WITH NO
SIGNIFICANT WEATHER AND/OR OBSTRUCTIONS TO VISIBILITY.

* - THESE STATIONS ARE NOT NWS OR FAA STATIONS...AND ARE NOT SUBJECT
    TO NWS AND FAA QUALITY CONTROL.

TXZ171-172-183>190-291000-
TEXAS HILL COUNTRY AND EDWARDS PLATEAU

CITY           SKY/WX    TMP DP  RH WIND       PRES   REMARKS
JUNCTION       CLEAR     29  28  96 CALM      30.08F
*LLANO         CLEAR     30  28  93 CALM      30.14S
BURNET         CLEAR     30  26  85 CALM      30.12S
*HORSESHOE BAY CLEAR     29  29 100 CALM      30.12R
*KERRVILLE     CLEAR     29  28  95 CALM      30.10S
*FREDERICKSBRG CLEAR     28  27  94 CALM      30.09S
*ROCKSPRINGS   CLEAR     37  34  87 S6        30.10S WCI  33
*BOERNE STAGE  CLEAR     28  27  93 CALM      30.13R
HONDO          CLEAR     30  28  92 N3        30.16S
*UVALDE        CLEAR     31  30  98 CALM      30.15F
DEL RIO        CLEAR     39  35  86 E8        30.10F WCI  33
LAUGHLIN AFB   NOT AVBL
CARRIZO SPRGS  CLEAR     34  34 100 CALM      30.14S FOG
$$

TXZ173-191>194-202-209-217>225-228-291000-
CENTRAL AND SOUTH CENTRAL TEXAS

CITY           SKY/WX    TMP DP  RH WIND       PRES   REMARKS
GEORGETOWN     CLEAR     28  25  86 CALM      30.12S
AUSTIN/BERGSTM CLEAR     25  24  96 CALM      30.14S
AUSTIN/MABRY     N/A     31  29  92 CALM      30.14S
*AUSTIN/EXEC   CLEAR     32  30  93 CALM      30.14S
*LAGO VISTA    CLEAR     39  31  71 SW5       30.11S WCI  36
SAN MARCOS     CLEAR     30  28  93 NW3       30.14R
NEW BRAUNFELS  CLEAR     31  29  92 W5        30.13R WCI  26
RANDOLPH AFB   CLEAR     34  31  87 SW6       30.15R WCI  29
PT SAN ANTONIO CLEAR     31  30  96 CALM      30.13R
SAN ANTONIO    CLEAR     33  31  92 NW5       30.15R WCI  29
STINSON FIELD  CLEAR     33  31  92 W3        30.14R
*PLEASANTON    CLEAR     33  33  98 CALM      30.17S
*LA GRANGE     CLEAR     33  32  98 CALM      30.14R
*GIDDINGS      CLEAR     31  30  97 CALM      30.18R
*GONZALES      CLEAR     32  32  99 CALM      30.15S
$$

TXZ163>164-176>182-195>201-210>213-226-227-235-291000-
SOUTHEAST TEXAS

CITY           SKY/WX    TMP DP  RH WIND       PRES   REMARKS
COLLEGE STN    CLEAR     33  31  92 CALM      30.15S
*BRYAN         CLEAR     32  32  99 N5        30.16S WCI  28
*CALDWELL      CLEAR     30  30 100 CALM      30.18R
*CROCKETT      CLOUDY    41  41 100 CALM      30.19R
*BRENHAM       CLEAR     34  33  96 CALM      30.16R
HUNTSVILLE     FOG       37  36  96 NW3       30.14F VSB 1/4
CONROE         FOG       39  38  96 N5        30.15S VSB 3/4 WCI  36
HOUSTON BUSH   FOG       41  41 100 N6        30.14F VSB 1/4 WCI  37
HOUSTON HOBBY  CLOUDY    42  41  96 NW7       30.13F WCI  38
*HOUSTON SW AP CLOUDY    35  35 100 NW5       30.14F FOG     WCI  31
PEARLAND       CLOUDY    43  41  93 VRB7      30.14F FOG     WCI  39
HOUSTON HOOKS  FOG       40  39  97 NW3       30.15S VSB 1/2
ELLINGTON FLD  CLOUDY    43  41  93 NW7       30.14F WCI  39
SUGAR LAND     FOG       41  39  93 NW8       30.14S VSB 3/4 WCI  36
*HOUSTON EXEC  CLEAR     34  34 100 N3        30.16S FOG
*CLEVELAND MUN CLOUDY    42  42  99 N3        30.15S
*WHARTON       CLEAR     38  37  96 NW5       30.17R WCI  34
*COLUMBUS      FAIR      34  33  99 CALM      30.15S
$$

TXZ214>216-236>238-291000-
THE UPPER TEXAS COAST

CITY           SKY/WX    TMP DP  RH WIND       PRES   REMARKS
*ORANGE        CLOUDY    47  47  99 NW3       30.14R FOG
PORT ARTHUR    CLOUDY    45  44  97 NW9       30.12S FOG     WCI  40
GALVESTON      LGT RAIN  45  45 100 NW8       30.14S FOG     WCI  41
ANGLETON       FOG       40  40 100 NW3       30.13F VSB 1
*BAY CITY        N/A     42  42 100 NW5       30.14S FOG     WCI  39
PALACIOS       CLOUDY    42  40  92 NW8       30.16R WCI  37
$$

TXZ229>234-239>247-291000-
TEXAS COASTAL BEND AND RIO GRANDE PLAINS

CITY           SKY/WX    TMP DP  RH WIND       PRES   REMARKS
VICTORIA       PTCLDY    41  38  89 CALM      30.16F
*BEEVILLE      CLEAR     36  36 100 W5        30.16F WCI  32
ROCKPORT       CLEAR     42  39  89 N5        30.15F WCI  39
*PORT ARANSAS  MOCLDY    44  42  91 NW6       30.16S WCI  41
*PORT LAVACA   CLOUDY    42  40  90 N7        30.16F WCI  38
*INGLESIDE     PTCLDY    43  40  91 CALM      30.16F
CORPUS CHRISTI PTCLDY    38  36  92 W6        30.16F WCI  33
CORPUS NAS     PTCLDY    42  41  96 W7        30.15F WCI  38
*ROBSTOWN      NOT AVBL
ALICE          CLEAR     39  36  89 NW5       30.15F WCI  36
KINGSVILLE NAS CLEAR     38  38 100 NW5       30.16F WCI  34
COTULLA        FOG      N/A N/A N/A CALM      30.15F VSB 3/4
*FAITH RANCH   CLEAR     37  37 100 S3        30.14S
LAREDO         NOT AVBL
$$

TXZ248>255-291000-
DEEP SOUTH TEXAS

CITY           SKY/WX    TMP DP  RH WIND       PRES   REMARKS
BROWNSVILLE    CLOUDY    48  46  93 W5        30.16S WCI  46
PORT ISABEL    CLOUDY    47  45  93 NW8       30.14F WCI  43
*SOUTH PADRE   PTCLDY   N/A N/A N/A E7        30.14S
HARLINGEN      CLOUDY    46  44  93 NW7       30.15F WCI  42
*HEBBRONVILLE  FOG       40  39  98 CALM      30.14F VSB 1/4
MCALLEN        CLOUDY    43  43 100 CALM      30.18R FOG
*WESLACO       CLOUDY    44  42  93 CALM      30.17S FOG
FALFURRIAS     CLEAR     40  39  94 N3        30.14F
EDINBURG       CLOUDY    45  43  92 CALM      30.17S FOG
*ZAPATA        PTCLDY    37  37 100 CALM      30.14F
$$

TXZ213>215-236>238-242>244-246-247-251-254-255-291000-
CMAN STATIONS

STATION/POSITION TIME  TEMP    WIND        PRES    WAVE
                       AIR SEA DIR/SP/G            HT/PER
                 (UTC) (F)     (DEG/KT/KT) (MB)    (FT/S)
SABINE PASS      0800   48 58  350/  7/  9 1019.4
SEA RIM ST PARK  0800   46     330/  5/  6 1020.3
NORTH JETTY/GLS  0800   45 59  360/  9/ 10   N/A
MORGANS POINT    0800   45     340/  3/  8 1020.3
MISSION/ARANSAS  0800   45     320/  6     1023.0
PORT O`CONNOR    0800          280/  7/ 13   N/A
PORT ARANSAS     0800   45 60  340/  5/  6 1021.5
MALAQUITE BEACH  0800   45 61  300/  6/  7 1020.6
BAFFIN BAY       0800   44     320/  8/  9 1021.1
PORT ISABEL      0800   48 62  300/  5/  6 1020.7
$$

GMZ080-GMZ150>470-291000-
OFFSHORE BUOY REPORTS

STATION/POSITION TIME  TEMP    WIND        PRES    WAVE
                       AIR SEA DIR/SP/G            HT/PER
                 (UTC) (F)     (DEG/KT/KT) (MB)    (FT/S)
20 E GALVESTON   0900   48 60  330/  8/ 10 1019.4    1/ 6
90 E PT ARANSAS  0900   51 69  340/  6/ 10 1020.2    2/ 5
35 NE PT MANSFLD 0900   55 71  350/ 10/ 16 1020.0    3/ 6
200 E PT ISABEL  0900   69 74  360/ 12/ 14 1017.8    6/ 7
$$


USA.gov is the U.S. government's official web portal to all federal, state and local government web resources and services.